Regional Weather Roundup
Issued by NWS

Home | Current Version | Previous Version | Text Only | Print | Product List | Glossary Off
Versions: 1 2 3 4 5 6 7 8 9 10 11 12 13 14 15 16 17 18 19 20 21 22 23 24 25 26 27 28 29 30 31 32 33 34 35 36 37 38 39 40 41 42 43 44 45 46 47 48 49 50

000
ASUS43 KDMX 271907
RWRIA

WEATHER ROUNDUP FOR IOWA
NATIONAL WEATHER SERVICE DES MOINES IA
200 PM CDT MON JUL 27 2015

NOTE: "FAIR" INDICATES FEW OR NO CLOUDS BELOW 12,000 FEET WITH NO
SIGNIFICANT WEATHER AND/OR OBSTRUCTIONS TO VISIBILITY.

* - THESE STATIONS ARE NOT NWS STATIONS...THUS NOT UNDER NWS
QUALITY CONTROL.  THEY ALSO DO NOT REPORT WEATHER SUCH
AS PRECIPITATION OR FOG.

IAZ001>003-012>014-020>022-031>034-043>046-272000-
   NORTHWEST IOWA

CITY           SKY/WX    TMP DP  RH WIND       PRES   REMARKS
CARROLL *      CLOUDY    70  68  94 E15G21    29.93F
CHEROKEE *     PTSUNNY   79  70  73 S12G23    29.90R HX  81
DENISON *      SUNNY     75  70  83 SE13G18   29.90F HAZE
LE MARS *      SUNNY     84  70  61 SE14G23   29.88F HX  88
ORANGE CITY *  SUNNY     84  68  58 S16G22    29.88S HX  87
SHELDON *      SUNNY     82  72  69 E5G14     29.88R HX  87
SIOUX CITY     SUNNY     84  70  62 SE18G24   29.88R HX  88
SPENCER        CLOUDY    78  68  71 E12       29.90R HX  80
STORM LAKE *   SUNNY     75  72  88 SE9G15    29.92S
$$

IAZ055>058-069>071-079>083-090>094-272000-
   SOUTHWEST IOWA

CITY           SKY/WX    TMP DP  RH WIND       PRES   REMARKS
ATLANTIC *     PTSUNNY   73  72  94 NE8G14    29.94R
AUDUBON *      LGT RAIN  70  66  88 NE10      29.94F
CLARINDA *     SUNNY     82  81  94 SW7       29.92F HX  95
COUNCIL BLFS * MOSUNNY   82  79  89 SE9       29.92F HX  93
CRESTON *      CLOUDY    77  72  83 NE15      29.94F
HARLAN  *      MOSUNNY   73  73 100 E6        29.97R
LAMONI         CLOUDY    90  79  70 S9        29.92F HX 106
RED OAK *      CLOUDY    82  79  89 SW6       29.92R HX  93
SHENANDOAH *   HVY RAIN  75  73  94 E6        29.92F VSB 3/4
$$

IAZ047>049-059>061-072>074-084-272000-
   CENTRAL IOWA

CITY           SKY/WX    TMP DP  RH WIND       PRES   REMARKS
AMES           TSTM      69  68  96 E6        30.00F
ANKENY *       LGT RAIN  70  70 100 VRB7      30.00R
CHARITON *     PTSUNNY   86  77  74 E9        29.94S HX  97
DES MOINES     TSTM      72  69  90 N12       29.98S
GRINNELL*      CLOUDY    79  73  83 NE6       30.00S HX  82
KNOXVILLE *    CLOUDY    81  72  74 NW22G33   29.99R HX  84
MARSHALLTOWN   LGT RAIN  78  74  87 W5        30.01R HX  81
PELLA *        CLOUDY    82  77  83 E9        29.95F HX  91
PERRY *        HVY RAIN  70  68  94 NE10      29.99R
$$

IAZ004>006-015-016-023>025-035-036-272000-
   NORTH CENTRAL IOWA

CITY           SKY/WX    TMP DP  RH WIND       PRES   REMARKS
ALGONA *       SUNNY     75  72  88 SE16G30   29.92F
CLARION *      MOSUNNY   73  72  94 S12       29.97F
ESTHERVILLE    CLOUDY    76  70  82 SE12      29.93F
FORT DODGE *   CLOUDY    70  66  88 S7        29.96F
MASON CITY     CLOUDY    76  73  91 SE12      30.00S
FOREST CITY *  PTSUNNY   77  73  88 SE14      29.99R
IOWA FALLS *   RAIN      72  70  94 W8        30.03R
$$

IAZ007>011-017>019-026>030-037>042-050>054-066-272000-
   NORTHEAST IOWA

CITY           SKY/WX    TMP DP  RH WIND       PRES   REMARKS
CEDAR RAPIDS   CLOUDY    82  74  76 SE3       29.98F HX  88
CHARLES CITY * MOSUNNY   81  75  83 SE9       30.00F HX  86
CLINTON *      MOSUNNY   84  72  65 E10       30.01F HX  89
DUBUQUE        MOSUNNY   84  67  56 SE9       30.02S HX  86
MONTICELLO *   PTSUNNY   82  72  69 VRB7      30.00S HX  87
OELWEIN *      MOSUNNY   81  72  74 SE8       30.01F HX  84
WATERLOO       CLOUDY    80  73  79 S7        29.98F HX  84
$$

IAZ064-065-067-068-078-272000-
   EAST CENTRAL IOWA

CITY           SKY/WX    TMP DP  RH WIND       PRES   REMARKS
DAVENPORT      MOSUNNY   84  71  65 E9        29.99F HX  89
IOWA CITY      CLOUDY    85  73  67 SE7       29.99S HX  91
MT. PLEASANT * MOSUNNY   91  68  46 SE3       29.96F HX  95
MUSCATINE *    MOSUNNY   88  72  58 S7        29.97S HX  94
QUAD CITIES    PTSUNNY   86  71  60 E13G23    29.97F HX  91
$$

IAZ062-063-075>077-085>089-095>099-272000-
   SOUTHEAST IOWA

CITY           SKY/WX    TMP DP  RH WIND       PRES   REMARKS
BURLINGTON     PTSUNNY   86  75  69 E7        29.96S HX  95
FAIRFIELD *    PTSUNNY   86  73  66 E7        29.96F HX  93
FORT MADISON * MOSUNNY   84  77  79 NE6       29.97S HX  94
KEOKUK *       SUNNY     86  77  74 E7        29.94F HX  97
OSKALOOSA *      N/A     84  75  74 E8        29.96F HX  92
CENTERVILLE *  SUNNY     86  79  79 E10       29.95F HX  99
OTTUMWA        PTSUNNY   86  76  71 E10       29.94F HX  96
WASHINGTON *   MOSUNNY   86  75  70 E7        29.98F HX  95
$$

ABBREVIATIONS USED IN REMARKS
   TC - TEMPERATURES IN CELSIUS
  WCI - WIND CHILL INDEX
   HX - HEAT INDEX
  VSB - VISIBILITY
$$



USA.gov is the U.S. government's official web portal to all federal, state and local government web resources and services.